Total_Precipitation_Accumulation
0.37 0.33 0.29 0.30 0.28 0.26 0.24 0.28 0.34 0.36 0.38 0.45 0.55 0.65 0.75 0.93 1.14 1.20 1.27 1.41 1.43 1.44 1.57 1.68 1.71 1.64 1.56 1.62 1.79 2.16 2.04 1.69 1.53 1.57 1.42 1.27 1.21 1.29 1.27 1.36 1.45 1.38 1.31
0.27 0.24 0.23 0.22 0.21 0.18 0.17 0.22 0.31 0.39 0.44 0.50 0.64 0.78 1.02 1.14 1.28 1.43 1.42 1.45 1.51 1.54 1.60 1.82 1.93 1.86 1.85 1.95 1.99 2.23 2.38 2.10 1.90 1.91 2.06 1.83 1.61 1.28 1.05 1.14 1.23 1.26 1.31
0.23 0.18 0.17 0.18 0.17 0.15 0.18 0.23 0.36 0.56 0.75 0.85 1.08 1.34 1.59 1.68 1.61 1.61 1.66 1.64 1.66 1.73 1.71 1.82 2.02 1.99 1.95 2.01 2.20 2.49 2.78 2.69 2.42 2.23 2.38 2.13 1.86 1.70 1.21 0.98 1.05 1.16 1.29
0.28 0.22 0.21 0.20 0.18 0.20 0.29 0.45 0.67 0.97 1.22 1.36 1.54 1.75 1.86 1.89 1.83 1.85 1.83 1.81 1.72 1.66 1.66 1.79 1.99 2.14 2.22 2.28 2.34 2.35 2.69 2.92 2.75 2.61 2.31 2.02 1.87 1.97 1.74 1.25 1.02 1.09 1.16
0.31 0.31 0.33 0.34 0.38 0.47 0.65 0.94 1.19 1.43 1.59 1.64 1.72 1.91 2.06 2.21 2.23 2.12 1.97 1.85 1.82 1.75 1.67 1.72 1.79 1.83 1.93 2.06 2.17 2.25 2.48 2.65 2.78 2.75 2.56 2.30 2.14 1.72 1.70 1.70 1.46 1.20 0.99
0.39 0.46 0.59 0.70 0.81 0.90 1.08 1.28 1.42 1.56 1.56 1.57 1.62 1.74 1.92 2.08 2.11 2.13 2.09 1.96 1.83 1.73 1.63 1.58 1.67 1.69 1.70 1.84 1.95 2.05 2.30 2.47 2.59 2.65 2.55 2.44 2.38 2.13 1.87 1.70 1.66 1.50 1.19
0.50 0.68 0.83 0.97 1.08 1.18 1.27 1.29 1.29 1.33 1.35 1.37 1.40 1.47 1.53 1.56 1.63 1.73 1.65 1.52 1.41 1.36 1.36 1.28 1.33 1.45 1.51 1.70 1.77 1.71 1.77 1.96 2.18 2.35 2.37 2.35 2.27 2.23 2.16 2.01 1.84 1.61 1.27
0.75 0.87 0.98 1.07 1.11 1.23 1.28 1.22 1.19 1.18 1.11 1.06 1.10 1.12 1.15 1.20 1.23 1.24 1.19 1.11 1.07 1.04 1.01 1.00 1.01 1.08 1.16 1.38 1.60 1.58 1.59 1.67 1.77 1.86 2.10 2.21 2.16 2.18 2.01 1.89 1.92 1.72 1.45
1.02 1.19 1.19 1.09 1.00 1.05 1.12 1.09 1.04 0.98 0.90 0.84 0.87 0.90 0.96 0.98 0.96 0.93 0.88 0.86 0.80 0.80 0.78 0.80 0.90 0.95 0.94 1.04 1.18 1.36 1.44 1.51 1.59 1.61 1.77 1.87 1.94 1.91 1.77 1.79 1.86 1.75 1.49
1.10 1.37 1.50 1.37 1.10 0.92 0.94 0.90 0.86 0.88 0.85 0.81 0.83 0.83 0.75 0.68 0.68 0.70 0.65 0.63 0.67 0.71 0.71 0.68 0.70 0.77 0.79 0.88 0.99 1.05 1.16 1.23 1.39 1.56 1.70 1.73 1.77 1.79 1.70 1.68 1.81 1.80 1.58
1.29 1.43 1.47 1.34 1.15 0.88 0.80 0.78 0.75 0.78 0.82 0.75 0.77 0.77 0.67 0.54 0.50 0.49 0.46 0.46 0.50 0.56 0.57 0.59 0.66 0.66 0.67 0.69 0.71 0.77 0.83 0.90 1.00 1.07 1.21 1.42 1.60 1.66 1.66 1.71 1.78 1.82 1.68
0.96 0.97 1.08 1.08 1.01 0.87 0.80 0.85 0.88 0.88 0.80 0.72 0.67 0.64 0.57 0.49 0.48 0.44 0.40 0.42 0.46 0.49 0.50 0.55 0.59 0.58 0.64 0.66 0.67 0.67 0.69 0.79 0.87 0.87 0.88 0.99 1.21 1.38 1.52 1.60 1.63 1.69 1.68
0.70 0.64 0.74 0.88 0.82 0.76 0.79 0.87 1.01 1.00 0.91 0.78 0.67 0.63 0.59 0.55 0.52 0.46 0.44 0.43 0.50 0.60 0.63 0.62 0.65 0.62 0.64 0.64 0.65 0.69 0.70 0.73 0.78 0.81 0.83 0.89 0.98 1.15 1.25 1.35 1.46 1.54 1.67
0.55 0.49 0.49 0.52 0.52 0.53 0.56 0.69 0.95 1.13 1.09 0.97 0.83 0.73 0.67 0.61 0.54 0.48 0.46 0.43 0.47 0.53 0.56 0.64 0.72 0.79 0.84 0.82 0.79 0.78 0.76 0.71 0.73 0.79 0.86 0.88 0.89 1.02 1.23 1.35 1.42 1.46 1.57
0.36 0.31 0.29 0.31 0.32 0.37 0.44 0.53 0.82 1.02 1.02 1.00 0.86 0.72 0.61 0.53 0.50 0.53 0.54 0.48 0.44 0.46 0.47 0.55 0.64 0.74 0.82 0.87 0.88 0.74 0.63 0.64 0.69 0.69 0.71 0.78 0.85 0.88 1.03 1.20 1.43 1.45 1.57
0.30 0.29 0.26 0.23 0.20 0.20 0.26 0.35 0.54 0.71 0.77 0.82 0.78 0.62 0.55 0.49 0.44 0.47 0.53 0.53 0.43 0.40 0.42 0.46 0.45 0.47 0.51 0.68 0.69 0.57 0.47 0.52 0.62 0.69 0.71 0.71 0.72 0.75 0.79 0.83 1.07 1.27 1.39
0.33 0.34 0.33 0.29 0.26 0.23 0.23 0.25 0.31 0.40 0.48 0.52 0.53 0.44 0.41 0.48 0.48 0.48 0.48 0.43 0.36 0.38 0.39 0.34 0.31 0.33 0.37 0.42 0.41 0.47 0.47 0.50 0.54 0.62 0.72 0.76 0.74 0.80 0.89 0.85 0.88 0.97 1.04
0.35 0.32 0.29 0.27 0.25 0.22 0.21 0.21 0.22 0.25 0.28 0.27 0.25 0.21 0.28 0.39 0.39 0.35 0.33 0.30 0.30 0.34 0.41 0.35 0.33 0.37 0.35 0.36 0.41 0.45 0.45 0.58 0.64 0.64 0.64 0.75 0.82 0.87 1.03 1.01 1.08 1.01 0.91
0.16 0.14 0.12 0.11 0.11 0.11 0.11 0.11 0.08 0.09 0.10 0.09 0.09 0.10 0.11 0.12 0.13 0.11 0.13 0.18 0.24 0.29 0.26 0.30 0.45 0.45 0.42 0.50 0.47 0.39 0.45 0.57 0.65 0.61 0.64 0.75 0.85 1.01 1.11 1.14 1.17 1.06 0.97
0.04 0.06 0.08 0.09 0.08 0.08 0.08 0.07 0.07 0.07 0.07 0.07 0.08 0.08 0.07 0.08 0.07 0.07 0.08 0.11 0.15 0.20 0.21 0.25 0.38 0.45 0.48 0.50 0.37 0.35 0.44 0.57 0.65 0.66 0.67 0.89 0.89 0.97 1.02 1.07 1.19 1.21 1.08
0.04 0.06 0.07 0.07 0.07 0.07 0.07 0.07 0.06 0.08 0.10 0.10 0.09 0.07 0.07 0.08 0.11 0.13 0.11 0.11 0.11 0.12 0.16 0.21 0.26 0.26 0.27 0.27 0.28 0.32 0.36 0.43 0.55 0.63 0.67 0.64 0.76 0.78 0.88 0.99 1.07 1.28 1.17
0.05 0.07 0.07 0.07 0.07 0.08 0.07 0.08 0.07 0.09 0.12 0.11 0.10 0.09 0.09 0.09 0.11 0.17 0.17 0.15 0.14 0.12 0.12 0.17 0.23 0.22 0.19 0.17 0.19 0.22 0.26 0.33 0.39 0.47 0.58 0.57 0.65 0.70 0.76 0.78 0.95 1.13 1.10
0.05 0.07 0.08 0.09 0.09 0.09 0.10 0.09 0.10 0.11 0.12 0.12 0.11 0.11 0.12 0.12 0.12 0.13 0.16 0.17 0.15 0.14 0.14 0.16 0.19 0.21 0.22 0.20 0.22 0.24 0.27 0.30 0.30 0.32 0.47 0.53 0.61 0.59 0.58 0.70 0.89 0.95 0.99
0.05 0.05 0.06 0.09 0.12 0.13 0.14 0.14 0.15 0.16 0.15 0.15 0.15 0.13 0.14 0.15 0.15 0.15 0.17 0.19 0.20 0.20 0.20 0.21 0.23 0.25 0.26 0.22 0.22 0.27 0.30 0.31 0.29 0.31 0.45 0.57 0.63 0.60 0.59 0.66 0.79 0.84 0.97
0.08 0.06 0.06 0.07 0.10 0.13 0.15 0.16 0.17 0.19 0.20 0.20 0.19 0.19 0.18 0.19 0.20 0.20 0.21 0.20 0.22 0.25 0.24 0.26 0.29 0.27 0.25 0.23 0.24 0.27 0.31 0.32 0.33 0.41 0.56 0.69 0.70 0.70 0.67 0.70 0.80 0.77 0.75
0.07 0.07 0.07 0.07 0.07 0.08 0.08 0.10 0.12 0.15 0.17 0.21 0.22 0.19 0.21 0.23 0.23 0.22 0.20 0.19 0.20 0.24 0.24 0.23 0.25 0.26 0.24 0.22 0.25 0.29 0.32 0.33 0.42 0.58 0.75 0.86 0.94 0.94 0.87 0.82 0.80 0.72 0.70